ZHONGXING-9

Last updated on Mon Oct 14 2024 00:02:38 GMT+0000 (Coordinated Universal Time)

1 33051U 08028A 24287.56973394 -.00000250 00000+0 00000+0 0 9995 2 33051 0.0139 233.1680 0003937 331.1246 115.6459 1.00273180 59908
UTC large
Height (km)
Speed (km/s)
/
Latitude / Longitude
Inclination (degrees)
Orbital Period (minutes)
Azimuth
Elevation
Range (km)
Doppler Factor

Next 0 passes for location: London (51.5072 / 0.1276)

Sorry there are no passes over London.